Theta_e
280 280 280 280 279 279 278 278 278 278 278 278 277 278 278 278 277 277 277 277 277 277 276 276 275 275 276 276 275 275 275 274 274 273 273 273 272 272 272 272 271 271 271 269 266 267 268 269 269 268 269 269 269 270 274 274 271 271 272 272 271 272 277
280 280 280 280 280 279 279 278 278 278 278 277 277 277 278 277 277 277 277 277 276 277 276 276 275 275 275 276 275 275 274 274 274 273 272 272 271 271 271 273 272 271 271 271 267 265 267 267 269 267 269 268 269 268 271 270 269 270 271 270 269 268 270
280 280 280 280 280 280 279 279 278 278 278 278 277 277 277 277 277 277 277 276 276 276 277 276 275 275 276 275 274 274 275 275 274 273 272 272 272 271 272 272 273 272 271 271 270 267 266 266 267 267 268 268 269 269 270 269 268 268 269 269 268 267 267
280 280 280 280 280 280 280 279 279 279 278 278 278 277 277 278 277 277 277 277 276 277 276 276 275 275 275 275 274 274 274 274 274 273 272 272 272 272 272 272 273 273 272 271 271 268 267 268 266 268 268 269 269 269 269 269 269 268 267 267 267 266 265
279 279 279 279 280 280 280 280 280 279 278 278 278 278 278 277 278 277 277 277 277 277 276 276 275 275 275 275 274 274 274 274 273 273 273 272 272 272 272 272 273 272 273 271 271 270 268 268 267 268 268 269 267 268 268 268 267 267 266 266 266 266 266
276 277 277 278 278 279 279 280 280 280 279 278 278 278 278 278 277 277 277 277 277 277 277 276 276 276 275 274 274 273 273 273 273 273 273 272 272 272 272 272 272 272 272 272 271 271 266 267 266 266 266 267 267 267 266 266 266 266 265 264 264 264 265
275 275 276 276 277 277 278 278 279 279 278 278 278 277 277 277 277 277 277 277 277 277 277 276 276 276 275 274 274 274 274 274 273 273 273 273 272 272 271 271 271 271 271 271 270 270 268 266 266 266 264 266 267 268 267 265 264 263 264 264 265 264 264
273 274 274 274 275 275 276 276 276 277 277 277 277 277 277 277 276 276 277 277 277 277 277 276 276 276 276 275 275 275 274 274 273 274 273 273 272 272 271 270 270 270 270 269 269 269 268 266 265 265 265 266 266 264 266 266 264 263 264 263 264 265 264
273 273 273 273 274 274 275 274 274 275 275 276 276 276 276 276 276 276 276 276 276 276 277 277 277 276 276 276 276 276 276 275 275 274 273 273 272 271 271 270 270 269 269 268 268 268 269 265 264 264 263 263 263 263 263 265 265 265 266 265 263 263 265
272 272 271 271 272 273 273 273 274 275 278 279 278 277 276 276 276 276 276 276 276 276 276 276 276 276 277 277 277 276 276 276 276 276 275 273 273 271 271 270 269 269 268 268 267 267 268 265 264 264 263 263 264 265 265 265 265 263 264 263 263 262 261
270 270 270 270 270 270 271 272 273 276 278 279 280 279 277 276 276 276 275 275 275 275 275 275 276 276 276 276 276 276 276 276 276 276 275 275 275 274 272 270 269 269 269 268 267 268 267 267 265 265 265 264 264 265 264 265 265 264 264 262 260 259 258
268 268 269 269 269 269 270 270 273 276 278 279 279 279 278 277 276 275 275 275 275 275 275 275 275 275 275 275 275 275 275 276 276 276 276 276 275 274 274 274 272 270 269 268 268 267 267 267 266 265 265 264 265 264 264 264 264 264 263 262 261 261 260
267 267 267 267 267 267 268 269 272 276 277 278 278 279 278 277 277 276 275 275 275 274 274 274 274 274 274 274 275 275 275 274 274 276 275 275 275 274 274 275 276 275 272 271 269 268 267 267 267 265 265 266 265 266 264 264 263 263 263 263 262 261 261
266 266 266 266 266 266 266 267 271 275 276 277 277 278 277 276 275 275 275 274 274 274 274 274 274 273 273 273 272 273 273 273 273 273 273 273 273 273 273 274 275 275 274 273 271 269 268 269 268 267 267 266 267 265 263 263 262 263 262 262 262 263 263
263 264 265 264 264 264 265 266 272 274 275 276 276 277 275 273 273 273 273 273 273 273 273 273 273 273 273 273 272 272 272 272 272 272 272 272 272 272 272 272 272 273 273 273 272 270 270 270 269 268 268 267 267 266 266 266 264 264 263 263 261 258 257
263 263 263 263 263 263 263 265 271 272 274 275 275 275 272 272 271 270 271 271 271 272 273 273 273 272 272 272 272 272 273 273 272 271 271 270 271 271 271 271 273 275 276 274 273 271 271 270 269 271 268 267 267 266 266 266 264 262 260 259 257 258 256
262 263 262 262 262 262 262 262 267 271 272 274 275 273 270 270 269 269 269 269 269 269 270 270 271 272 271 272 271 272 274 276 273 270 270 269 269 270 270 270 271 275 277 277 277 276 275 275 274 274 274 273 273 268 267 264 262 260 259 258 256 256 255
261 261 261 261 260 262 261 261 264 269 271 273 273 272 269 268 267 267 267 267 268 268 268 269 271 271 271 271 270 273 275 276 274 270 269 269 269 268 268 269 270 270 272 277 277 277 277 276 276 275 275 275 274 273 269 263 261 261 259 258 259 257 257
259 259 260 260 261 263 261 260 262 266 270 271 272 271 268 267 266 265 265 266 266 267 267 267 268 269 270 271 271 274 274 275 274 272 270 269 268 267 267 268 269 268 268 269 270 272 273 272 274 273 272 272 272 272 269 265 264 263 260 259 259 259 257
257 257 259 260 260 260 260 259 260 263 269 270 271 271 268 266 264 264 264 264 265 264 264 265 265 267 269 271 272 273 274 275 275 273 271 269 268 267 267 269 268 268 268 268 268 269 270 270 271 272 271 271 271 271 270 266 265 263 262 261 260 260 259
256 257 257 258 259 259 259 259 260 261 267 269 270 271 269 265 265 264 265 265 265 263 261 264 264 264 267 269 271 272 273 274 275 275 273 270 268 269 269 271 267 267 269 267 267 267 267 268 268 268 267 268 269 269 270 267 265 265 263 262 261 260 260
255 255 256 257 258 258 258 259 261 260 264 268 269 270 270 267 266 267 266 263 262 262 262 263 264 264 266 268 270 271 272 273 274 274 273 272 273 274 274 271 269 267 267 267 266 265 265 265 265 265 264 264 264 265 266 267 266 265 265 265 264 263 261
254 254 255 256 257 257 257 258 258 261 261 264 267 269 269 269 268 269 266 262 260 259 260 261 261 263 265 266 270 271 272 272 273 273 271 274 274 273 273 272 270 267 266 265 265 264 263 263 263 263 263 263 263 263 263 264 265 265 265 265 265 265 265
253 253 253 254 255 257 257 257 256 258 261 261 264 267 268 269 269 269 265 262 259 259 260 260 259 261 267 269 270 271 271 271 268 267 270 270 269 268 269 269 269 268 266 265 264 264 263 263 263 262 262 263 264 264 264 264 264 264 265 265 265 265 265
253 253 253 253 254 255 257 257 256 256 258 261 261 265 267 268 268 266 264 261 259 259 259 262 267 268 268 268 268 268 266 264 264 265 265 265 266 266 265 266 267 267 266 264 263 263 263 263 263 263 263 264 264 264 264 262 262 262 262 262 262 261 260
254 254 254 253 253 254 255 256 256 257 257 259 260 261 264 266 265 263 264 263 260 262 262 262 264 262 262 262 262 261 260 260 261 262 262 262 263 261 262 263 264 265 265 265 264 264 263 263 263 262 263 263 263 262 261 261 260 260 258 258 258 257 257
256 257 255 255 254 254 254 254 255 256 256 258 259 260 261 262 261 262 261 259 258 259 257 259 260 259 261 260 261 260 260 259 259 258 257 256 256 257 258 260 261 263 263 264 264 264 264 265 265 264 262 261 261 261 261 261 260 259 258 257 258 258 257
257 258 256 254 254 254 253 254 253 255 257 259 261 261 262 262 262 259 257 257 257 256 257 256 257 256 253 252 252 252 251 252 252 254 255 254 254 255 256 259 261 263 263 263 264 264 263 262 264 262 262 261 260 260 259 259 259 259 258 257 256 255 256
260 260 258 256 254 253 254 255 255 256 260 261 263 262 260 260 261 259 256 257 258 256 254 253 252 252 252 251 251 251 250 251 251 252 253 252 253 253 254 254 252 255 257 260 261 262 262 261 262 261 262 260 260 260 259 258 258 259 258 256 257 256 257
260 260 258 257 254 254 256 256 256 260 263 264 264 264 261 261 263 261 257 256 256 255 250 250 249 250 249 250 249 250 250 250 250 250 251 252 255 253 252 253 253 254 255 257 258 260 261 260 261 260 260 260 260 259 259 258 259 257 258 256 256 256 257
263 262 260 258 256 257 259 259 258 258 262 263 263 263 261 261 259 259 256 255 253 249 248 247 247 248 248 249 249 249 249 250 250 251 250 250 251 252 253 253 253 254 254 255 256 257 259 259 260 260 260 259 259 259 259 258 258 258 257 257 256 255 255
261 261 260 258 258 257 256 257 257 257 261 262 262 261 258 260 260 259 256 253 252 246 247 246 246 247 247 248 248 249 250 250 250 250 249 249 250 250 251 252 252 254 254 255 255 256 257 258 258 259 259 259 258 258 258 257 257 257 257 257 257 256 255
258 258 258 258 259 259 259 256 256 257 260 260 260 259 254 256 256 254 253 251 247 243 245 244 245 245 245 247 247 248 248 249 249 249 250 250 249 249 250 250 251 253 253 254 255 256 256 257 257 257 257 257 257 257 257 257 257 257 257 257 256 256 254
254 254 253 254 255 256 256 255 257 257 257 258 258 256 255 252 252 254 252 249 245 245 244 244 244 245 245 245 247 247 247 247 248 248 249 249 249 249 250 250 251 251 252 253 253 254 255 256 256 256 256 256 257 257 257 257 256 256 256 256 256 256 254
247 250 252 251 251 252 253 252 252 253 254 254 253 252 253 252 244 244 244 245 244 244 243 244 244 243 244 244 244 245 246 246 246 246 247 247 247 248 248 249 250 250 251 251 251 252 253 254 255 256 256 256 256 255 255 256 256 255 256 255 255 255 253
244 243 249 251 251 251 252 252 252 252 253 254 253 251 248 243 242 241 242 243 242 242 244 242 243 243 242 242 242 242 243 244 244 245 245 245 246 246 246 246 248 250 250 249 249 250 251 252 253 255 256 256 256 255 255 256 255 255 254 255 255 255 254
Wind_Speed
8 8 9 9 10 10 10 11 11 10 10 11 13 12 13 12 12 15 14 13 14 14 13 14 15 16 16 13 11 12 11 11 13 11 11 10 10 11 10 11 11 14 15 4 1 3 7 7 8 8 9 10 9 9 10 10 10 10 9 8 7 8 16
7 7 8 8 10 10 10 10 11 10 10 12 13 13 11 12 13 14 15 13 14 15 12 13 15 17 15 13 14 13 13 12 11 11 11 11 11 11 12 12 11 13 12 13 3 2 1 5 7 8 8 12 11 11 9 10 10 8 9 8 7 7 7
7 8 7 8 9 9 9 10 10 10 10 12 13 14 13 12 13 15 15 15 16 15 13 14 15 16 13 10 12 14 14 12 12 11 12 13 11 12 13 12 13 11 13 14 8 8 8 8 7 9 10 11 9 10 10 11 8 10 7 6 7 7 6
7 7 7 7 8 8 8 9 9 10 11 13 13 13 14 14 14 14 15 15 15 15 14 14 15 15 14 11 14 14 13 12 12 11 11 12 12 12 13 12 11 13 12 10 10 7 10 7 8 7 5 7 6 10 8 8 8 7 7 7 6 7 6
7 7 7 7 7 7 8 8 9 10 11 11 11 13 13 13 13 13 14 14 15 14 14 14 15 15 13 12 14 14 13 12 14 13 12 12 12 12 12 10 10 12 11 10 11 6 5 5 5 5 6 7 8 6 7 7 10 9 8 7 6 5 6
7 7 8 8 8 7 7 7 7 8 9 10 11 12 12 12 12 13 13 13 13 13 13 14 15 14 13 13 15 15 13 13 15 13 13 14 12 11 10 11 11 10 11 11 11 9 4 7 8 5 6 9 7 9 9 7 5 4 4 5 5 5 4
8 7 7 8 7 7 7 8 7 7 7 7 9 10 11 12 12 12 12 12 13 13 13 14 14 14 13 14 15 15 14 14 14 13 15 14 14 12 11 11 11 10 11 11 11 9 7 7 6 8 8 8 8 9 8 11 8 6 4 4 7 6 3
9 7 6 7 6 6 6 6 6 6 6 6 6 7 9 10 11 11 12 12 12 12 12 13 14 14 13 14 14 15 14 14 13 12 13 13 12 11 11 11 10 10 10 11 11 11 9 7 8 6 2 4 7 8 6 7 9 10 10 9 7 7 8
8 8 8 7 7 7 6 5 5 5 6 6 7 6 7 8 9 10 11 11 11 12 12 12 12 12 12 14 17 19 17 16 15 12 12 12 11 11 12 11 10 10 10 10 11 10 8 7 7 8 9 8 10 12 14 10 10 11 9 7 7 5 4
7 6 7 7 7 7 6 6 5 8 13 11 7 6 6 7 7 8 9 10 10 10 10 11 10 11 16 17 18 19 20 20 20 19 16 13 12 13 13 12 12 11 11 11 11 12 11 10 12 11 11 12 12 10 8 8 9 10 8 5 6 2 4
7 7 6 6 6 7 6 6 6 14 14 13 14 9 6 6 7 7 7 8 9 10 10 9 9 9 11 14 15 16 19 19 20 22 22 21 14 12 15 14 14 13 13 12 12 12 11 13 14 12 11 12 11 9 11 11 11 11 8 9 10 10 2
7 7 6 6 6 6 6 6 11 16 15 15 15 12 8 6 5 6 7 7 8 8 8 8 8 8 8 9 11 11 12 16 20 22 22 15 13 16 18 19 18 15 13 13 12 12 13 13 13 11 10 11 10 10 10 10 11 11 11 10 10 10 9
8 8 8 7 8 8 7 7 13 15 16 15 15 15 12 6 6 6 6 7 7 8 8 7 7 7 7 7 11 12 11 11 12 13 12 22 21 18 22 25 27 24 18 14 15 14 14 14 12 11 12 12 12 11 12 11 10 10 9 10 11 10 6
8 8 7 7 7 6 6 7 12 16 16 15 15 14 12 6 8 7 6 6 7 7 7 8 8 8 8 7 7 8 10 10 10 10 11 14 15 15 20 24 27 26 25 19 15 14 15 13 11 13 12 12 13 13 13 12 12 11 10 11 14 10 7
6 7 6 6 6 5 6 6 15 16 16 15 15 15 11 7 8 7 7 7 6 7 7 7 7 7 8 7 7 8 9 10 10 10 10 12 14 15 14 14 16 17 15 14 12 13 14 11 12 13 11 12 13 16 15 15 16 16 15 12 2 4 2
5 6 7 6 7 6 7 7 16 17 17 17 16 16 8 7 8 7 7 7 8 8 7 6 6 6 7 7 7 8 12 12 9 10 11 12 12 12 12 12 15 20 19 14 13 12 12 10 10 14 12 13 13 12 10 6 3 3 4 6 6 9 4
6 6 5 6 7 6 6 6 12 17 17 16 18 11 6 7 6 6 6 6 7 6 7 7 7 6 6 7 6 8 13 18 14 10 12 12 12 12 11 12 11 20 26 27 26 23 21 20 18 20 21 21 24 16 13 9 8 10 8 8 9 8 6
6 5 4 4 6 6 5 7 10 16 16 17 17 14 6 6 5 6 6 6 6 5 5 7 11 10 7 6 6 9 14 16 14 11 12 11 13 13 12 11 8 6 12 24 27 28 27 26 25 24 25 25 26 26 18 13 14 12 10 12 11 10 9
5 5 4 4 4 8 7 6 9 15 16 17 16 12 5 5 4 5 6 6 6 5 5 6 6 10 9 8 8 12 13 15 13 10 11 11 11 12 13 11 7 9 10 10 10 12 14 13 18 17 15 16 27 28 22 16 14 10 12 12 10 9 4
4 5 6 5 5 5 4 6 7 10 17 16 16 16 8 3 5 6 6 6 5 5 5 6 6 7 10 13 14 14 14 14 16 11 8 9 10 12 13 8 8 11 10 10 12 12 12 11 8 9 12 12 14 17 18 15 12 11 12 11 11 10 10
5 5 6 5 5 5 6 5 7 9 17 16 16 17 14 5 6 5 6 5 6 6 5 6 6 6 9 13 15 15 16 15 15 15 9 8 10 11 12 11 9 12 15 11 11 11 10 9 8 6 4 7 11 12 12 12 13 12 13 12 11 10 10
4 5 6 6 5 4 6 7 9 8 13 17 17 17 17 9 6 9 6 6 5 6 5 5 6 6 10 15 15 15 16 17 16 18 10 7 12 19 21 13 10 10 9 10 9 9 9 9 8 7 6 5 5 6 7 8 12 13 13 12 12 13 12
6 6 6 7 6 5 6 6 8 12 10 15 19 18 17 18 12 15 8 7 7 6 6 5 6 7 13 16 17 17 16 16 18 15 10 17 16 14 14 17 10 8 9 9 9 9 9 9 8 8 8 7 7 6 6 6 8 12 13 12 10 10 11
6 5 6 7 7 6 5 5 5 8 12 11 17 18 18 18 18 17 10 7 5 6 6 6 6 8 15 16 17 17 18 17 15 10 15 17 18 15 11 6 5 5 8 9 9 10 10 9 9 9 9 9 9 10 10 10 9 9 11 11 10 10 10
6 6 6 5 6 6 6 6 6 6 8 13 13 18 19 19 19 18 15 8 6 7 5 9 15 17 17 16 17 17 17 12 11 14 14 15 15 13 7 6 5 4 4 8 9 9 10 10 10 11 11 11 10 10 8 7 6 5 5 6 5 4 4
6 6 5 5 5 6 6 7 7 6 7 7 9 10 15 19 16 14 14 12 8 12 14 14 13 12 12 10 9 7 6 7 8 13 15 14 12 6 6 6 6 6 6 5 7 9 10 9 8 8 9 8 7 7 8 8 8 7 6 6 6 5 4
8 5 3 5 5 6 6 6 6 6 7 7 7 7 8 7 8 9 11 8 8 8 8 10 9 8 10 9 12 11 10 8 9 8 7 6 6 5 5 6 5 6 7 7 6 4 5 7 7 6 6 6 7 8 8 8 8 8 9 7 7 8 9
9 4 5 4 6 6 7 6 5 7 9 10 10 9 9 8 7 7 7 7 8 7 8 7 8 9 7 7 7 7 6 6 6 6 6 6 6 6 7 7 9 9 7 7 6 6 4 4 4 6 8 8 8 9 8 8 8 9 8 7 7 6 9
5 5 5 5 6 7 7 6 6 8 13 13 15 13 10 8 8 5 7 10 14 9 6 6 7 7 7 7 7 7 6 7 7 7 7 6 7 7 6 6 5 5 5 6 6 6 6 6 5 6 6 7 7 8 7 6 8 7 8 6 8 10 9
8 8 7 5 5 5 7 7 8 16 20 18 18 17 19 16 17 17 14 15 16 8 5 6 6 6 6 6 6 6 6 6 6 6 7 7 7 8 7 6 5 5 5 6 6 6 6 5 5 6 7 7 8 7 6 8 9 8 8 8 9 9 9
15 16 14 10 6 8 13 14 16 17 18 19 18 18 20 19 19 19 19 19 10 7 7 7 7 7 7 6 6 6 6 6 6 6 6 6 6 6 7 8 7 7 7 7 6 6 6 5 5 6 6 8 8 9 8 7 7 7 7 9 9 9 9
15 16 15 15 13 10 7 12 15 18 18 18 18 18 21 19 19 19 19 16 12 7 8 7 7 7 7 7 7 7 8 7 7 7 6 6 6 6 6 7 7 9 8 8 7 6 6 5 5 6 5 5 6 6 7 8 8 8 8 8 8 9 9
14 15 15 15 16 16 14 14 15 18 18 18 18 18 18 17 16 17 17 14 9 6 7 6 6 6 5 6 6 7 7 7 7 7 7 6 6 6 6 6 7 8 7 7 7 6 6 6 6 5 4 4 5 6 7 8 9 9 9 9 9 8 7
12 14 14 13 14 15 15 16 16 18 17 18 18 18 17 14 11 14 16 12 7 6 6 6 6 6 6 6 6 6 6 6 6 6 6 6 6 6 6 6 7 6 6 7 8 7 7 7 6 5 5 6 5 6 7 7 7 8 8 8 9 9 8
6 9 13 10 10 12 14 14 15 15 15 16 16 16 15 13 9 9 8 8 7 6 6 6 6 6 6 6 6 6 6 6 6 6 6 6 6 6 6 6 6 6 5 6 6 7 7 8 7 7 6 6 6 6 6 6 7 7 8 9 8 8 7
4 4 7 12 12 13 13 14 13 14 14 15 16 15 12 7 7 7 6 6 6 6 6 5 5 6 6 6 6 6 6 6 6 6 6 6 6 6 6 6 6 6 6 6 6 6 7 8 8 8 6 6 7 8 8 7 7 7 7 8 8 8 8
Wind_Direction
246 242 239 237 231 230 228 225 224 217 218 220 226 226 226 225 217 223 230 227 225 223 221 222 227 229 227 219 217 222 220 219 219 212 217 217 216 222 219 216 225 236 250 230 22 131 187 175 160 189 185 183 182 185 195 178 177 180 186 186 182 193 208
262 251 247 242 241 236 232 230 228 221 215 222 226 229 224 225 222 224 230 225 229 225 220 222 227 231 227 215 220 223 222 219 216 211 213 216 212 217 219 211 213 233 237 244 131 215 132 166 187 181 187 184 181 191 188 170 171 182 178 179 171 175 193
282 271 262 256 252 246 241 236 233 227 221 225 227 228 228 224 223 225 229 227 228 227 220 223 227 231 226 213 220 224 225 220 218 211 214 217 212 217 220 212 215 220 234 239 225 161 165 178 192 189 194 186 197 187 173 143 160 168 173 170 167 174 180
301 286 275 269 263 255 250 243 237 233 228 229 229 229 231 229 226 227 229 230 230 228 222 223 227 230 223 210 219 223 223 220 218 213 216 216 216 217 218 216 210 219 228 231 234 196 183 178 177 203 192 180 178 152 169 169 144 151 174 161 176 177 177
334 326 316 302 289 279 268 257 246 240 237 235 233 233 233 232 230 230 231 231 231 229 224 224 227 230 221 210 220 224 222 217 216 214 213 215 215 214 217 214 211 218 220 224 230 213 176 163 185 170 133 164 161 172 167 154 165 183 184 175 167 175 197
339 336 329 327 319 311 303 291 276 258 247 241 237 236 237 236 234 233 234 234 233 231 226 226 228 229 220 212 217 223 220 215 217 213 214 216 215 212 212 213 215 214 217 222 227 211 160 193 182 183 191 187 170 160 178 186 171 132 173 178 188 207 198
334 333 334 327 330 327 322 317 306 294 278 259 245 240 239 239 238 237 236 236 235 232 229 228 229 229 221 217 218 221 219 215 214 213 216 214 213 210 205 212 214 210 212 217 221 218 188 189 200 187 191 195 178 192 178 182 175 202 204 194 202 207 194
331 326 333 328 331 329 329 326 326 320 312 296 275 259 247 242 241 241 239 240 238 235 232 230 230 229 225 220 220 220 220 213 214 213 216 216 211 204 205 209 210 206 210 215 219 216 204 192 186 200 167 144 164 197 213 191 184 198 203 206 212 208 194
328 327 331 333 333 333 333 333 331 332 323 316 303 284 272 261 254 248 246 244 243 240 237 234 233 231 229 224 223 222 219 217 211 208 214 215 204 200 205 206 207 205 206 214 215 222 208 181 193 198 174 178 184 194 200 187 184 210 207 187 200 222 198
323 326 328 332 331 333 332 330 328 323 322 319 309 288 270 265 259 256 253 251 250 248 242 238 236 235 232 229 227 226 224 221 217 214 213 210 199 198 203 203 204 203 206 206 209 215 207 198 213 198 192 194 200 196 189 185 196 206 201 135 211 193 211
330 337 332 333 332 331 328 328 323 326 326 323 317 310 293 267 262 254 252 252 252 253 250 245 240 240 239 236 232 231 228 224 221 219 217 215 198 192 196 200 203 208 205 204 211 213 207 211 216 207 195 201 197 190 193 195 194 203 192 194 194 218 206
337 334 334 335 333 334 330 332 327 331 328 325 320 316 305 289 269 260 254 251 251 253 254 252 247 241 237 235 231 230 230 228 224 223 219 202 187 195 197 198 199 202 205 206 211 211 212 210 215 205 189 200 189 190 194 198 199 200 197 197 204 215 209
340 339 341 342 342 340 335 335 327 332 331 329 327 322 319 308 296 276 265 259 254 249 248 248 247 247 238 233 234 232 229 227 228 218 195 213 208 200 203 208 210 206 206 202 207 212 214 208 206 198 205 194 190 187 193 198 200 204 202 202 210 216 190
341 338 342 342 341 336 331 332 328 341 338 337 333 328 328 341 336 327 305 288 277 268 261 251 245 242 240 231 224 225 227 224 223 223 219 216 217 216 216 214 215 217 215 208 208 210 218 212 190 207 200 189 183 181 195 194 202 200 198 204 215 208 193
335 333 337 337 340 336 335 330 346 349 347 345 343 340 358 353 346 347 343 335 313 298 283 273 265 257 252 243 223 222 215 214 216 215 216 216 217 218 218 217 219 221 219 216 215 217 222 213 199 206 194 181 189 191 196 192 196 193 198 202 140 49 88
337 337 341 339 345 343 342 342 350 350 347 349 347 4 6 0 354 349 345 344 345 330 312 294 276 266 260 252 239 232 219 211 210 211 213 218 219 220 222 223 222 221 222 218 215 216 218 213 202 200 191 184 186 193 192 186 160 145 150 132 163 205 180
333 331 338 343 347 345 342 339 343 347 345 346 345 2 5 356 359 348 350 347 349 344 341 340 326 304 286 269 257 243 232 232 213 209 216 218 219 218 219 228 226 227 228 229 228 224 221 218 209 210 205 195 191 185 178 164 170 192 161 161 194 214 179
327 330 338 348 341 337 344 331 335 343 343 346 345 352 4 355 356 337 339 338 336 335 331 327 332 330 321 301 282 272 253 244 232 212 217 219 222 222 223 229 215 210 232 235 235 234 228 222 217 214 212 207 203 195 178 171 193 187 158 194 201 201 203
333 330 335 340 331 336 346 330 332 340 344 346 346 347 359 355 350 333 329 327 323 322 323 318 324 322 317 312 292 276 267 259 250 227 214 214 220 225 227 225 200 205 217 225 236 243 245 239 223 213 205 207 206 199 185 186 191 167 175 197 199 198 149
333 333 328 329 332 331 338 337 331 334 346 348 348 346 350 352 342 326 317 311 307 322 322 324 316 315 316 316 316 304 284 267 264 256 221 210 217 225 230 214 199 212 208 218 220 228 230 227 221 210 205 199 202 205 193 189 188 176 185 194 199 196 195
334 334 325 329 329 327 337 340 337 335 346 350 349 346 346 349 331 315 308 320 340 335 334 325 319 317 315 315 312 307 301 292 278 270 254 217 218 220 222 211 206 221 215 216 220 226 228 228 222 211 199 194 199 199 200 187 192 186 189 191 196 198 202
335 335 326 325 328 335 337 339 346 343 344 350 350 348 345 340 334 329 345 357 347 334 330 325 329 328 325 323 311 305 297 291 291 289 287 264 238 229 233 229 213 208 209 210 214 218 221 222 219 212 198 195 201 202 200 182 188 194 196 198 197 193 195
336 337 332 330 335 341 340 342 343 348 346 346 347 344 343 339 338 336 359 355 330 316 305 315 310 308 308 301 297 296 298 290 287 294 307 304 313 319 277 242 217 197 202 210 211 211 217 216 213 210 210 204 206 204 194 189 188 196 198 201 202 203 203
331 334 337 338 330 338 343 339 345 337 341 339 339 341 339 338 335 339 342 334 311 307 303 303 297 283 290 298 295 291 293 312 338 327 322 331 337 336 342 345 296 218 208 208 209 213 214 215 209 207 210 211 208 203 200 203 196 192 196 200 204 206 209
327 331 329 330 334 335 339 342 338 333 332 334 331 337 337 336 335 334 328 327 319 314 303 304 310 319 324 326 327 326 332 336 333 334 329 328 328 333 346 333 312 294 217 212 220 219 218 217 211 207 211 209 205 208 203 203 212 189 185 191 200 205 207
320 326 328 326 337 343 331 331 331 329 328 319 320 315 322 323 327 318 328 350 342 334 329 325 327 327 324 322 323 330 331 323 326 329 332 331 334 340 322 314 314 297 276 247 228 223 224 222 212 211 213 207 195 192 200 192 196 186 195 175 182 190 235
319 323 352 352 344 330 329 324 326 328 323 323 319 311 306 313 306 341 19 4 345 348 344 337 337 337 336 336 331 332 334 336 331 334 333 338 336 330 320 308 290 281 282 279 268 250 232 227 212 198 179 186 185 196 200 187 190 190 201 177 192 193 213
309 357 8 1 346 338 334 329 331 342 340 332 327 325 335 349 349 45 3 6 354 0 351 354 353 2 10 2 4 355 357 350 346 336 334 333 332 323 318 315 311 308 297 285 280 263 231 215 201 185 196 191 192 200 192 181 181 190 190 177 165 171 216
327 13 23 15 349 337 326 333 355 347 335 325 329 335 10 352 347 31 33 2 358 356 353 2 3 3 2 8 1 360 357 354 355 348 344 339 333 327 328 328 330 317 303 300 293 269 236 216 194 196 189 188 195 202 185 178 184 194 175 174 176 199 202
351 2 7 4 333 325 337 347 347 338 332 333 335 352 12 356 353 352 12 5 4 8 8 3 6 359 358 354 0 354 354 349 349 345 348 345 346 345 335 326 323 314 302 305 300 299 294 255 219 202 188 186 193 196 182 185 182 195 180 174 189 204 214
356 0 3 3 347 349 349 349 350 343 336 340 340 1 9 358 353 357 13 11 10 19 20 2 8 355 355 353 352 350 347 343 350 350 358 344 343 343 349 350 346 333 322 315 301 291 284 283 266 242 209 195 195 188 186 182 196 193 189 193 196 200 212
3 5 0 5 357 353 353 1 356 346 346 345 351 9 15 1 1 9 16 17 32 32 17 8 7 2 360 357 359 354 354 355 358 353 352 344 349 346 350 355 345 338 337 320 318 302 293 276 264 251 247 226 211 192 188 184 190 190 196 201 202 206 205
10 9 3 3 1 0 2 3 355 354 354 352 3 8 16 7 8 18 21 23 27 29 13 7 6 5 359 4 356 352 355 351 351 347 346 351 347 344 340 341 327 333 326 324 320 312 293 290 275 266 253 243 227 212 208 197 196 196 193 196 197 206 201
15 11 7 7 5 2 7 6 1 358 355 358 13 12 10 15 13 19 23 32 22 14 11 358 7 357 355 354 347 344 348 345 343 342 341 342 340 333 330 329 328 336 331 341 332 328 313 297 284 264 256 243 234 227 221 208 202 195 193 201 202 201 194
347 353 1 6 6 2 8 7 5 359 2 10 21 21 17 23 17 11 1 14 17 10 2 2 2 351 344 345 342 338 341 338 333 335 340 337 334 331 329 328 332 327 331 340 337 331 324 315 298 277 255 247 236 231 224 220 206 202 201 201 203 202 197
336 327 336 1 5 8 8 8 10 6 12 17 20 26 31 26 13 9 1 6 1 1 354 356 358 353 336 339 331 338 336 332 329 327 332 325 337 338 333 324 322 331 344 338 336 331 334 332 323 304 272 252 245 232 228 223 213 205 207 209 206 202 200